Location: Newark
(41.7772°N, 74.7403°W)
Time: 00:21:55
(UTC+00:00)

Hubble Space Telescope - Visible Passes

Search period start: 02 April 2020 00:00
Search period end: 12 April 2020 00:00
Orbit: 536 x 540 km, 28.5° (Epoch: 01 April)

Date Brightness Start Highest point End Pass type
(mag) Time Alt. Az. Time Alt. Az. Time Alt. Az.
09 Apr 3.3 01:31:54 10° SSW 01:31:55 10° SSW 01:31:55 10° SSW visible
10 Apr 3.1 01:21:06 10° SSW 01:21:59 12° SSW 01:21:59 12° SSW visible
11 Apr 3.0 01:10:24 10° SSW 01:12:00 12° S 01:12:00 12° S visible
